FW0827 Weather Reports


time (UTC)temp
F
wind
direction
speed
knots
gust
knots
rain 1hr
in
rain 24hr
in
rain mn
in
humidity
%
barometer
mb
20260505065726 57 263 0.0 0.0 0.00 0.00 0.00 78 1027.1
20260505065704 58 263 0.0 0.0 0.00 0.00 0.00 78 1010.5
20260505065223 58 263 0.0 0.0 0.00 0.00 0.00 77 1027.1
20260505065203 58 263 0.0 0.0 0.00 0.00 0.00 77 1010.4
20260505064720 57 263 0.0 0.0 0.00 0.00 0.00 77 1027.1
20260505064704 57 263 0.0 0.0 0.00 0.00 0.00 78 1010.4
20260505064218 57 263 0.0 0.0 0.00 0.00 0.00 78 1027.2
20260505064204 57 263 0.0 0.0 0.00 0.00 0.00 78 1010.5
20260505063715 57 263 0.0 0.0 0.00 0.00 0.00 78 1027.1
20260505063703 57 263 0.0 0.0 0.00 0.00 0.00 78 1010.3
20260505063211 57 263 0.0 0.0 0.00 0.00 0.00 77 1027.1
20260505063203 57 263 0.0 0.0 0.00 0.00 0.00 77 1010.3
20260505062707 57 263 0.0 0.0 0.00 0.00 0.00 77 1027.1
20260505062205 57 263 0.0 0.0 0.00 0.00 0.00 77 1027.1
20260505062203 57 263 0.0 0.0 0.00 0.00 0.00 78 1010.3
20260505061704 57 263 0.0 0.0 0.00 0.00 0.00 78 1010.5
20260505061702 57 263 0.0 0.0 0.00 0.00 0.00 78 1027.2
20260505061204 57 263 0.0 0.0 0.00 0.00 0.00 78 1010.3
20260505061200 57 263 0.0 0.0 0.00 0.00 0.00 78 1026.9
20260505060704 56 263 0.0 0.0 0.00 0.00 0.00 78 1010.4
20260505060657 57 263 0.0 0.0 0.00 0.00 0.00 78 1027.1
20260505060204 56 263 0.0 0.0 0.00 0.00 0.00 78 1010.3
20260505060154 56 263 0.0 0.0 0.00 0.00 0.00 78 1026.9
20260505055704 56 263 0.0 0.0 0.00 0.00 0.00 77 1010.3
20260505055649 56 263 0.0 0.0 0.00 0.00 0.00 77 1026.8
20260505055146 56 263 0.0 0.0 0.00 0.00 0.00 78 1026.8
20260505054704 56 263 0.0 0.0 0.00 0.00 0.00 77 1010.2
20260505054643 56 263 0.0 0.0 0.00 0.00 0.00 77 1026.9
20260505054203 56 263 0.0 0.0 0.00 0.00 0.00 77 1010.3
20260505054141 56 263 0.0 0.0 0.00 0.00 0.00 77 1027.0
20260505053639 56 263 0.0 0.0 0.00 0.00 0.00 77 1027.1
20260505053203 56 263 0.0 0.0 0.00 0.00 0.00 76 1010.3
20260505053135 56 263 0.0 0.0 0.00 0.00 0.00 76 1026.9
20260505052703 56 263 0.0 0.0 0.00 0.00 0.00 76 1010.4
20260505052632 56 263 0.0 0.0 0.00 0.00 0.00 76 1027.1
20260505052204 56 263 0.0 0.0 0.00 0.00 0.00 76 1010.3
20260505052130 56 263 0.0 0.0 0.00 0.00 0.00 76 1027.1
20260505051704 56 263 0.0 0.0 0.00 0.00 0.00 76 1010.4
20260505051626 57 263 0.0 0.0 0.00 0.00 0.00 76 1027.1
20260505051203 56 263 0.0 0.9 0.00 0.00 0.00 75 1010.3
20260505051125 56 263 0.0 1.7 0.00 0.00 0.00 75 1026.9
20260505050703 56 263 0.0 0.0 0.00 0.00 0.00 77 1010.3
20260505050622 56 263 0.0 0.0 0.00 0.00 0.00 77 1027.0
20260505050204 56 263 0.0 0.0 0.00 0.00 0.00 76 1010.1
20260505050120 56 263 0.0 0.0 0.00 0.00 0.00 76 1026.8
20260505041704 58 263 0.0 0.0 0.00 0.00 0.00 72 1010.4
20260505041550 58 263 0.0 0.0 0.00 0.00 0.00 72 1027.1
20260505041205 57 263 0.0 0.0 0.00 0.00 0.00 71 1010.3
20260505041047 57 263 0.0 0.0 0.00 0.00 0.00 71 1027.0
20260505040544 58 263 0.0 0.0 0.00 0.00 0.00 71 1027.1
20260505040204 57 305 0.0 0.0 0.00 0.00 0.00 71 1010.1
20260505040041 57 305 0.0 0.0 0.00 0.00 0.00 71 1026.9
20260505035704 57 305 0.0 0.0 0.00 0.00 0.00 71 1010.2
20260505035537 57 305 0.0 0.0 0.00 0.00 0.00 71 1026.9
20260505035205 57 305 0.0 0.0 0.00 0.00 0.00 71 1010.0
20260505035034 57 305 0.0 0.0 0.00 0.00 0.00 71 1026.6
20260505034703 57 305 0.0 0.0 0.00 0.00 0.00 70 1009.8
20260505034530 57 305 0.0 0.0 0.00 0.00 0.00 70 1026.5
20260505034203 57 307 0.0 0.0 0.00 0.00 0.00 71 1009.9
20260505034028 57 307 0.0 0.0 0.00 0.00 0.00 71 1026.5
20260505033525 57 307 0.0 0.0 0.00 0.00 0.00 69 1026.7
20260505033205 57 307 0.0 0.0 0.00 0.00 0.00 69 1010.0
20260505033023 57 307 0.0 0.0 0.00 0.00 0.00 70 1026.7
20260505032704 57 307 0.0 0.0 0.00 0.00 0.00 68 1010.1
20260505032520 57 307 0.0 0.0 0.00 0.00 0.00 67 1027.0
20260505032204 58 307 0.0 0.0 0.00 0.00 0.00 67 1010.2
20260505032017 58 307 0.0 0.0 0.00 0.00 0.00 66 1026.9
20260505031705 58 307 0.0 0.0 0.00 0.00 0.00 65 1010.2
20260505031514 58 307 0.0 0.0 0.00 0.00 0.00 66 1026.8
20260505031203 58 307 0.0 0.0 0.00 0.00 0.00 66 1010.2
20260505031010 58 307 0.0 0.0 0.00 0.00 0.00 65 1026.8
20260505030705 57 307 0.0 0.0 0.00 0.00 0.00 67 1010.0
20260505030507 57 307 0.0 0.0 0.00 0.00 0.00 68 1026.8
20260505030204 56 307 0.0 0.0 0.00 0.00 0.00 69 1010.0
20260505030003 56 307 0.0 0.0 0.00 0.00 0.00 69 1026.8
20260505025704 57 307 0.0 0.0 0.00 0.00 0.00 68 1010.1
20260505025459 57 307 0.0 0.0 0.00 0.00 0.00 68 1026.8
20260505024959 57 307 0.0 0.0 0.00 0.00 0.00 68 1026.8
20260505024704 57 307 0.0 0.0 0.00 0.00 0.00 68 1010.1
20260505024454 57 307 0.0 0.0 0.00 0.00 0.00 68 1026.7
20260505024204 57 307 0.0 0.0 0.00 0.00 0.00 69 1010.1
20260505023952 57 307 0.0 0.0 0.00 0.00 0.00 68 1026.9
20260505023705 57 307 0.0 0.0 0.00 0.00 0.00 69 1009.9
20260505023449 57 307 0.0 0.0 0.00 0.00 0.00 69 1026.5
20260505023205 57 307 0.0 0.0 0.00 0.00 0.00 69 1010.2
20260505022946 57 307 0.0 0.0 0.00 0.00 0.00 68 1026.9
20260505022704 57 307 0.0 0.0 0.00 0.00 0.00 68 1010.3
20260505022444 57 307 0.0 0.0 0.00 0.00 0.00 68 1027.1
20260505021941 57 307 0.0 0.0 0.00 0.00 0.00 68 1027.0
20260505021704 58 307 0.0 0.0 0.00 0.00 0.00 67 1010.4
20260505021437 58 307 0.0 0.0 0.00 0.00 0.00 67 1027.1
20260505021204 58 307 0.0 0.0 0.00 0.00 0.00 66 1010.4
20260505020933 59 307 0.0 0.0 0.00 0.00 0.00 65 1027.1
20260505020703 59 307 0.0 0.0 0.00 0.00 0.00 65 1010.5
20260505020428 59 307 0.0 0.0 0.00 0.00 0.00 65 1027.0
20260505015925 59 307 0.0 0.0 0.00 0.00 0.00 65 1027.1
20260505015704 59 307 0.0 0.0 0.00 0.00 0.00 64 1010.3
20260505015423 59 307 0.0 0.0 0.00 0.00 0.00 65 1027.0
20260505015205 59 307 0.0 0.0 0.00 0.00 0.00 65 1010.3
20260505014920 58 307 0.0 0.0 0.00 0.00 0.00 65 1027.2
20260505014704 58 307 0.0 0.0 0.00 0.00 0.00 65 1010.2
20260505014416 58 307 0.0 0.0 0.00 0.00 0.00 65 1026.9
20260505014203 58 307 0.0 0.0 0.00 0.00 0.00 64 1010.2
20260505013914 59 307 0.0 0.0 0.00 0.00 0.00 63 1026.9
20260505013703 59 307 0.0 0.0 0.00 0.00 0.00 63 1010.3
20260505013410 59 307 0.0 0.0 0.00 0.00 0.00 63 1027.1
20260505013204 59 307 0.0 0.0 0.00 0.00 0.00 62 1010.2
20260505012909 60 307 0.0 0.0 0.00 0.00 0.00 62 1026.8
20260505012704 60 307 0.0 0.0 0.00 0.00 0.00 62 1010.3
20260505012406 60 307 0.0 0.0 0.00 0.00 0.00 62 1026.9
20260505012204 59 307 0.0 0.0 0.00 0.00 0.00 63 1010.1
20260505011902 59 307 0.0 0.0 0.00 0.00 0.00 64 1026.8
20260505011704 59 307 0.0 0.0 0.00 0.00 0.00 64 1010.2
20260505011359 59 307 0.0 0.0 0.00 0.00 0.00 64 1026.9
20260505011204 59 307 0.0 0.0 0.00 0.00 0.00 62 1010.3
20260505010855 60 307 0.0 0.0 0.00 0.00 0.00 62 1026.6
20260505010351 60 307 0.0 0.0 0.00 0.00 0.00 61 1026.8
20260505010204 61 307 0.0 0.0 0.00 0.00 0.00 60 1010.2
20260505005847 61 307 0.0 0.0 0.00 0.00 0.00 60 1026.6
20260505005702 61 307 0.0 0.0 0.00 0.00 0.00 60 1010.1
20260505005344 60 307 0.0 0.0 0.00 0.00 0.00 60 1026.5
20260505004842 60 307 0.0 0.0 0.00 0.00 0.00 61 1026.7
20260505004704 59 307 0.0 0.0 0.00 0.00 0.00 62 1009.9
20260505004338 59 307 0.0 0.0 0.00 0.00 0.00 62 1026.3
20260505004203 59 307 0.0 0.0 0.00 0.00 0.00 61 1009.7
20260505003836 60 307 0.0 0.0 0.00 0.00 0.00 61 1026.6
20260505003704 60 307 0.0 0.0 0.00 0.00 0.00 60 1009.6
20260505003333 60 307 0.0 0.0 0.00 0.00 0.00 60 1026.5
20260505003203 60 307 0.0 0.0 0.00 0.00 0.00 59 1009.7
20260505002828 61 307 0.0 0.0 0.00 0.00 0.00 59 1026.3
20260505002703 61 307 0.0 0.0 0.00 0.00 0.00 60 1009.7
20260505002326 61 307 0.0 0.0 0.00 0.00 0.00 59 1026.2
20260505002204 61 307 0.0 0.0 0.00 0.00 0.00 59 1009.8
20260505001824 62 307 0.0 0.0 0.00 0.00 0.00 58 1026.5
20260505001703 62 307 0.0 0.0 0.00 0.00 0.00 58 1009.6
20260505001320 62 285 0.0 0.0 0.00 0.00 0.00 58 1026.4
20260505001204 62 263 0.0 0.0 0.00 0.00 0.00 58 1009.6
20260505000818 63 260 0.0 0.0 0.00 0.00 0.00 57 1026.2
20260505000703 63 260 0.0 0.0 0.00 0.00 0.00 57 1009.6
20260505000316 63 260 0.0 0.0 0.00 0.00 0.00 56 1026.1
20260504235812 64 260 0.0 0.0 0.00 0.00 0.00 55 1026.0
20260504235703 65 260 0.0 0.0 0.00 0.00 0.00 55 1009.5
20260504235309 65 260 0.0 0.0 0.00 0.00 0.00 53 1026.2
20260504234806 66 276 0.0 0.0 0.00 0.00 0.00 52 1026.1
20260504234703 66 274 0.0 0.9 0.00 0.00 0.00 52 1009.5
20260504234304 66 250 0.0 1.7 0.00 0.00 0.00 50 1026.4
20260504234205 66 249 0.9 2.6 0.00 0.00 0.00 51 1009.4
20260504233800 67 277 0.0 2.6 0.00 0.00 0.00 51 1026.2
20260504233255 67 141 0.0 0.0 0.00 0.00 0.00 49 1026.1
20260504233204 67 182 0.0 2.6 0.00 0.00 0.00 50 1009.4
20260504232752 67 221 0.9 2.6 0.00 0.00 0.00 48 1026.1
20260504232703 67 254 0.0 0.9 0.00 0.00 0.00 49 1009.5
20260504232249 67 253 0.0 1.7 0.00 0.00 0.00 49 1026.1
20260504232203 67 251 0.0 4.3 0.00 0.00 0.00 48 1009.5
20260504231746 67 184 0.9 4.3 0.00 0.00 0.00 50 1025.9
20260504231243 68 271 0.0 2.6 0.00 0.00 0.00 49 1026.0
20260504231203 67 243 0.9 2.6 0.00 0.00 0.00 49 1009.3
20260504230739 68 270 0.0 1.7 0.00 0.00 0.00 50 1026.0
20260504230704 68 252 0.0 2.6 0.00 0.00 0.00 49 1009.4
20260504230237 68 268 0.0 1.7 0.00 0.00 0.00 49 1025.9
20260504230204 68 269 0.0 6.1 0.00 0.00 0.00 48 1009.3
20260504225736 68 234 1.7 6.1 0.00 0.00 0.00 47 1026.1
20260504225704 68 247 0.9 6.1 0.00 0.00 0.00 48 1009.4
20260504225231 69 249 0.0 1.7 0.00 0.00 0.00 47 1026.1
20260504225203 69 236 0.9 6.1 0.00 0.00 0.00 46 1009.5
20260504224728 69 212 2.6 4.3 0.00 0.00 0.00 46 1026.1
20260504224704 68 249 0.9 4.3 0.00 0.00 0.00 46 1009.3
20260504224220 68 238 0.0 1.7 0.00 0.00 0.00 47 1026.2
20260504224203 68 250 0.9 2.6 0.00 0.00 0.00 46 1009.5
20260504223716 68 247 0.0 0.0 0.00 0.00 0.00 47 1026.1
20260504223703 68 257 0.0 4.3 0.00 0.00 0.00 48 1009.4
20260504223212 68 263 0.9 2.6 0.00 0.00 0.00 46 1026.3
20260504223204 68 256 0.0 6.1 0.00 0.00 0.00 46 1009.5
20260504222709 69 227 1.7 6.1 0.00 0.00 0.00 46 1026.0
20260504222206 69 265 0.0 6.1 0.00 0.00 0.00 46 1026.2
20260504221705 69 206 0.9 6.1 0.00 0.00 0.00 45 1009.5
20260504221703 69 205 3.5 6.1 0.00 0.00 0.00 45 1026.2
20260504221203 69 243 1.7 7.0 0.00 0.00 0.00 45 1009.5
20260504221201 69 220 1.7 6.1 0.00 0.00 0.00 44 1026.1
20260504220704 69 225 1.7 4.3 0.00 0.00 0.00 45 1009.4
20260504220656 69 228 2.6 4.3 0.00 0.00 0.00 45 1026.2
20260504220203 69 241 0.0 2.6 0.00 0.00 0.00 45 1009.4
20260504220155 69 251 0.0 1.7 0.00 0.00 0.00 45 1026.2
20260504215651 69 250 0.0 2.6 0.00 0.00 0.00 45 1026.3
20260504215205 69 240 2.6 7.0 0.00 0.00 0.00 45 1009.6
20260504215148 69 257 1.7 6.1 0.00 0.00 0.00 46 1026.4
20260504214644 69 153 5.2 6.1 0.00 0.00 0.00 45 1026.3
20260504214206 69 210 0.9 6.1 0.00 0.00 0.00 47 1009.5
20260504214140 69 224 0.0 2.6 0.00 0.00 0.00 46 1026.2
20260504213637 69 222 4.3 6.1 0.00 0.00 0.00 44 1026.3
20260504213204 69 200 1.7 2.6 0.00 0.00 0.00 45 1009.7
20260504213134 69 231 0.9 2.6 0.00 0.00 0.00 46 1026.4
20260504212630 69 209 0.9 2.6 0.00 0.00 0.00 45 1026.4
20260504212203 69 197 0.9 6.1 0.00 0.00 0.00 45 1009.7
20260504212127 69 195 0.0 2.6 0.00 0.00 0.00 45 1026.4
20260504211704 69 192 2.6 7.0 0.00 0.00 0.00 46 1009.7
20260504211625 69 188 4.3 6.1 0.00 0.00 0.00 46 1026.3
20260504211203 69 191 2.6 7.0 0.00 0.00 0.00 46 1009.5
20260504211121 69 205 2.6 4.3 0.00 0.00 0.00 46 1026.1
20260504210703 70 207 0.9 7.8 0.00 0.00 0.00 46 1009.7
20260504210619 70 209 0.0 6.1 0.00 0.00 0.00 46 1026.4
20260504210203 69 262 0.0 7.0 0.00 0.00 0.00 47 1009.4
20260504210115 69 262 0.0 1.7 0.00 0.00 0.00 48 1026.1
20260504205613 69 197 0.9 2.6 0.00 0.00 0.00 46 1026.3
20260504205110 70 261 0.0 0.0 0.00 0.00 0.00 46 1026.4
20260504204703 70 245 0.9 4.3 0.00 0.00 0.00 46 1009.8
20260504204608 70 251 0.0 4.3 0.00 0.00 0.00 47 1026.4
20260504204204 69 248 0.0 6.1 0.00 0.00 0.00 47 1009.6
20260504204106 69 248 0.0 0.0 0.00 0.00 0.00 48 1026.3
20260504203704 70 250 0.0 7.0 0.00 0.00 0.00 46 1009.6
20260504203604 70 270 0.0 0.0 0.00 0.00 0.00 46 1026.2
20260504203203 70 197 0.9 7.0 0.00 0.00 0.00 46 1009.7
20260504203101 70 222 0.9 1.7 0.00 0.00 0.00 47 1026.3
20260504202703 69 235 1.7 6.1 0.00 0.00 0.00 48 1009.8
20260504202551 69 223 0.9 2.6 0.00 0.00 0.00 48 1026.5
20260504202203 69 281 1.7 12.2 0.00 0.00 0.00 48 1009.8
20260504202048 69 290 0.9 7.0 0.00 0.00 0.00 49 1026.4
20260504201705 70 216 1.7 6.1 0.00 0.00 0.00 46 1009.8
20260504201545 70 218 2.6 2.6 0.00 0.00 0.00 46 1026.5
20260504201204 70 243 0.9 7.8 0.00 0.00 0.00 46 1010.0
20260504201043 70 250 0.0 6.1 0.00 0.00 0.00 46 1026.6
20260504200703 70 208 6.1 7.8 0.00 0.00 0.00 46 1009.8
20260504200539 71 204 7.0 8.7 0.00 0.00 0.00 46 1026.5
20260504200204 71 191 2.6 7.8 0.00 0.00 0.00 45 1009.9
20260504200036 71 203 1.7 8.7 0.00 0.00 0.00 45 1026.6
20260504195704 71 213 2.6 7.0 0.00 0.00 0.00 44 1010.1
20260504195532 71 227 2.6 4.3 0.00 0.00 0.00 44 1026.8
20260504195205 71 272 0.0 6.1 0.00 0.00 0.00 46 1010.0
20260504195029 71 273 0.0 1.7 0.00 0.00 0.00 46 1026.6
20260504194704 71 230 2.6 7.0 0.00 0.00 0.00 45 1010.2
20260504194526 72 190 5.2 7.0 0.00 0.00 0.00 44 1026.7
20260504194204 72 247 0.9 6.1 0.00 0.00 0.00 47 1010.2
20260504194021 72 256 0.0 1.7 0.00 0.00 0.00 46 1026.8
20260504193704 72 269 0.0 6.1 0.00 0.00 0.00 45 1010.2
20260504193518 72 250 0.0 0.0 0.00 0.00 0.00 45 1026.6
20260504193203 71 230 3.5 6.1 0.00 0.00 0.00 46 1010.2
20260504193017 72 272 2.6 4.3 0.00 0.00 0.00 47 1026.7
20260504192704 71 211 0.9 7.0 0.00 0.00 0.00 45 1010.3
20260504192514 71 241 0.0 4.3 0.00 0.00 0.00 45 1026.9
20260504192204 71 239 0.9 7.0 0.00 0.00 0.00 45 1010.3
20260504192013 71 226 0.9 1.7 0.00 0.00 0.00 44 1027.1
20260504191704 72 212 2.6 7.0 0.00 0.00 0.00 43 1010.5
20260504191510 72 255 3.5 7.0 0.00 0.00 0.00 42 1027.0
20260504191204 71 235 1.7 7.0 0.00 0.00 0.00 44 1010.4
20260504191006 71 211 1.7 7.0 0.00 0.00 0.00 46 1027.2
20260504190705 72 224 2.6 6.1 0.00 0.00 0.00 45 1010.5
20260504190501 72 211 3.5 6.1 0.00 0.00 0.00 43 1027.2
20260504190203 72 232 1.7 4.3 0.00 0.00 0.00 45 1010.4
20260504185958 72 194 3.5 4.3 0.00 0.00 0.00 44 1027.4
20260504185455 71 270 0.0 4.3 0.00 0.00 0.00 46 1027.3
20260504185204 71 225 4.3 7.0 0.00 0.00 0.00 43 1010.7
20260504184951 71 191 4.3 7.0 0.00 0.00 0.00 42 1027.4
20260504184705 71 258 1.7 6.1 0.00 0.00 0.00 45 1010.7
20260504184447 71 217 4.3 6.1 0.00 0.00 0.00 45 1027.4
20260504184204 71 261 0.9 10.4 0.00 0.00 0.00 44 1010.6
20260504183942 71 221 1.7 2.6 0.00 0.00 0.00 44 1027.3
20260504183705 72 218 1.7 7.8 0.00 0.00 0.00 42 1010.9
20260504183440 72 213 3.5 7.0 0.00 0.00 0.00 45 1027.7
20260504183204 72 243 0.9 6.1 0.00 0.00 0.00 44 1010.9
20260504182938 72 205 2.6 4.3 0.00 0.00 0.00 42 1027.6
20260504182704 71 229 0.9 4.3 0.00 0.00 0.00 41 1011.0
20260504182434 71 274 0.0 0.0 0.00 0.00 0.00 43 1027.5
20260504182205 70 234 1.7 6.1 0.00 0.00 0.00 43 1011.0
20260504181932 70 254 2.6 4.3 0.00 0.00 0.00 43 1027.7
20260504181704 70 236 1.7 7.0 0.00 0.00 0.00 45 1011.0
20260504181428 70 233 1.7 4.3 0.00 0.00 0.00 43 1027.8
20260504181204 70 225 4.3 7.0 0.00 0.00 0.00 43 1011.2
20260504180927 70 222 2.6 4.3 0.00 0.00 0.00 45 1028.0
20260504180704 70 256 2.6 7.0 0.00 0.00 0.00 44 1011.2
20260504180426 69 230 0.0 6.1 0.00 0.00 0.00 45 1027.9
20260504180203 70 205 2.6 7.0 0.00 0.00 0.00 44 1011.4
20260504175924 71 212 4.3 7.0 0.00 0.00 0.00 43 1028.2
20260504175704 71 261 0.0 4.3 0.00 0.00 0.00 47 1011.5
20260504175421 71 263 0.0 0.0 0.00 0.00 0.00 47 1028.3
20260504175204 70 230 0.9 6.1 0.00 0.00 0.00 46 1011.7
20260504174918 70 288 3.5 6.1 0.00 0.00 0.00 46 1028.2
20260504174705 70 211 1.7 6.1 0.00 0.00 0.00 44 1011.5
20260504174415 70 275 0.9 4.3 0.00 0.00 0.00 45 1028.3
20260504174204 70 249 0.9 6.1 0.00 0.00 0.00 48 1011.6
20260504173913 70 264 0.9 6.1 0.00 0.00 0.00 43 1028.3
20260504173409 70 226 4.3 6.1 0.00 0.00 0.00 46 1028.5
20260504173204 70 219 1.7 7.0 0.00 0.00 0.00 44 1011.8
20260504172907 70 221 0.9 7.0 0.00 0.00 0.00 45 1028.7
20260504172705 70 197 2.6 6.1 0.00 0.00 0.00 46 1011.8
20260504172403 70 217 1.7 6.1 0.00 0.00 0.00 44 1028.5
20260504172204 70 255 0.9 7.0 0.00 0.00 0.00 46 1012.1
20260504171859 71 256 2.6 7.0 0.00 0.00 0.00 46 1028.7
20260504171703 70 317 0.0 0.9 0.00 0.00 0.00 48 1011.9
20260504171356 69 229 0.0 1.7 0.00 0.00 0.00 45 1028.8
20260504171203 69 238 0.0 7.0 0.00 0.00 0.00 45 1012.1
20260504170853 68 204 2.6 4.3 0.00 0.00 0.00 47 1028.7
20260504170705 68 256 0.9 7.8 0.00 0.00 0.00 44 1012.2
20260504170349 68 250 0.0 1.7 0.00 0.00 0.00 43 1028.9
20260504170203 68 202 4.3 7.0 0.00 0.00 0.00 45 1012.3
20260504160309 68 209 1.7 4.3 0.00 0.00 0.00 47 1029.6
20260504160202 67 258 0.0 6.1 0.00 0.00 0.00 45 1012.8
20260504150734 66 189 2.6 4.3 0.00 0.00 0.00 47 1030.0
20260504150703 66 206 1.7 6.1 0.00 0.00 0.00 46 1013.4
20260504150231 66 255 0.0 1.7 0.00 0.00 0.00 46 1029.9
20260504150204 66 232 0.9 6.1 0.00 0.00 0.00 48 1013.6
20260504141202 63 273 0.0 4.3 0.00 0.00 0.00 58 1013.6
20260504141200 63 274 0.0 0.0 0.00 0.00 0.00 60 1030.4
20260504140704 63 210 1.7 4.3 0.00 0.00 0.00 56 1013.8
20260504140657 63 261 0.0 2.6 0.00 0.00 0.00 57 1030.3
20260504140204 64 218 1.7 4.3 0.00 0.00 0.00 58 1013.7
20260504140152 63 204 1.7 2.6 0.00 0.00 0.00 58 1030.3
20260504130703 59 217 0.0 4.3 0.00 0.00 0.00 66 1014.2
20260504130621 59 212 0.0 2.6 0.00 0.00 0.00 66 1030.9
20260504130118 59 231 0.0 0.0 0.00 0.00 0.00 67 1030.9
20260504120204 53 352 0.0 0.0 0.00 0.00 0.00 69 1014.5
20260504110703 43 321 0.0 0.0 0.00 0.00 0.00 81 1014.6
20260504110508 43 321 0.0 0.0 0.00 0.00 0.00 81 1031.3
20260504110204 42 321 0.0 0.0 0.00 0.00 0.00 80 1014.5
20260504100425 37 329 0.0 0.0 0.00 0.00 0.00 89 1031.3
20260504100204 37 329 0.0 0.0 0.00 0.00 0.00 89 1014.7
20260504081818 37 328 0.0 0.0 0.00 0.00 0.00 88 1031.2
20260504081704 37 328 0.0 0.0 0.00 0.00 0.00 89 1014.8
20260504081315 37 328 0.0 0.0 0.00 0.00 0.00 89 1031.2
20260504081204 37 328 0.0 0.0 0.00 0.00 0.00 89 1014.6
20260504080811 37 328 0.0 0.0 0.00 0.00 0.00 89 1031.2
20260504080308 37 328 0.0 0.0 0.00 0.00 0.00 89 1031.2
20260504080203 37 328 0.0 0.0 0.00 0.00 0.00 89 1014.5
20260504070235 38 328 0.0 0.0 0.00 0.00 0.00 86 1031.2
20260504070203 38 328 0.0 0.0 0.00 0.00 0.00 86 1014.6